EN

Hourly Weather Topola

Today, 16 May, Sunday

Time Temperature Precipitation Wind Pressure Humidity
00:00 +12°C° 0.3 mm 2 mps 746 mmHg 93%
01:00 +12°C° 0.3 mm 2 mps 746 mmHg 94%
02:00 +12°C° 0.5 mm 2 mps 746 mmHg 95%
03:00 +10°C° 0.5 mm 2 mps 746 mmHg 95%
04:00 +10°C° 0.5 mm 2 mps 746 mmHg 96%
05:00 +12°C° 0.7 mm 2 mps 746 mmHg 94%
06:00 +12°C° 0.7 mm 2 mps 746 mmHg 92%
07:00 +13°C° 0.7 mm 2 mps 746 mmHg 90%
08:00 +13°C° 0.3 mm 3 mps 746 mmHg 84%
09:00 +16°C° 0.3 mm 3 mps 746 mmHg 78%
10:00 +17°C° 0.3 mm 3 mps 746 mmHg 71%
11:00 +17°C° 0.4 mm 3 mps 746 mmHg 69%
12:00 +17°C° 0.4 mm 4 mps 746 mmHg 66%
13:00 +18°C° 0.4 mm 4 mps 746 mmHg 64%
14:00 +18°C° 0.1 mm 4 mps 746 mmHg 63%
15:00 +18°C° 0.1 mm 4 mps 746 mmHg 63%
16:00 +18°C° 0.1 mm 3 mps 745 mmHg 62%
17:00 +16°C° 0 mm 3 mps 745 mmHg 67%
18:00 +15°C° 0 mm 2 mps 745 mmHg 73%
19:00 +14°C° 0 mm 2 mps 745 mmHg 78%
20:00 +13°C° 0 mm 2 mps 745 mmHg 80%
21:00 +12°C° 0 mm 1 mps 745 mmHg 82%
22:00 +11°C° 0 mm 1 mps 745 mmHg 83%
23:00 +10°C° 0 mm 2 mps 745 mmHg 85%

Tomorrow, 17 May, Monday

Time Temperature Precipitation Wind Pressure Humidity
00:00 +9°C° 0 mm 2 mps 745 mmHg 87%
01:00 +9°C° 0 mm 2 mps 745 mmHg 88%
02:00 +9°C° 0 mm 2 mps 745 mmHg 90%
03:00 +8°C° 0 mm 2 mps 745 mmHg 91%
04:00 +8°C° 0 mm 2 mps 745 mmHg 93%
05:00 +10°C° 0 mm 2 mps 745 mmHg 88%
06:00 +12°C° 0 mm 2 mps 745 mmHg 83%
07:00 +14°C° 0 mm 2 mps 746 mmHg 78%
08:00 +15°C° 0.1 mm 2 mps 746 mmHg 73%
09:00 +16°C° 0.1 mm 2 mps 745 mmHg 67%
10:00 +18°C° 0.1 mm 3 mps 745 mmHg 62%
11:00 +17°C° 0.3 mm 3 mps 746 mmHg 67%
12:00 +15°C° 0.3 mm 4 mps 746 mmHg 71%
13:00 +15°C° 0.3 mm 4 mps 746 mmHg 76%
14:00 +13°C° 0.9 mm 4 mps 746 mmHg 81%
15:00 +12°C° 0.9 mm 3 mps 746 mmHg 87%
16:00 +11°C° 0.9 mm 3 mps 746 mmHg 93%
17:00 +12°C° 0.6 mm 2 mps 746 mmHg 93%
18:00 +12°C° 0.6 mm 2 mps 746 mmHg 93%
19:00 +12°C° 0.6 mm 1 mps 746 mmHg 94%
20:00 +12°C° 0.6 mm 1 mps 746 mmHg 94%
21:00 +12°C° 0.6 mm 1 mps 746 mmHg 95%
22:00 +11°C° 0.6 mm 1 mps 746 mmHg 95%
23:00 +11°C° 0.6 mm 1 mps 746 mmHg 95%

Day after tomorrow, 18 May, Tuesday

Time Temperature Precipitation Wind Pressure Humidity
00:00 +11°C° 0.6 mm 1 mps 745 mmHg 95%
01:00 +10°C° 0.6 mm 2 mps 745 mmHg 96%
02:00 +10°C° 0.2 mm 2 mps 745 mmHg 96%
03:00 +10°C° 0.2 mm 2 mps 745 mmHg 96%
04:00 +9°C° 0.2 mm 3 mps 745 mmHg 96%
05:00 +10°C° 0.1 mm 3 mps 746 mmHg 95%
06:00 +10°C° 0.1 mm 4 mps 746 mmHg 94%
07:00 +11°C° 0.1 mm 4 mps 746 mmHg 93%
08:00 +11°C° 0.1 mm 4 mps 746 mmHg 89%
09:00 +12°C° 0.1 mm 5 mps 746 mmHg 85%
10:00 +13°C° 0.1 mm 5 mps 746 mmHg 81%
11:00 +13°C° 0.4 mm 5 mps 746 mmHg 79%
12:00 +14°C° 0.4 mm 5 mps 746 mmHg 77%
13:00 +14°C° 0.4 mm 5 mps 747 mmHg 75%
14:00 +14°C° 0.5 mm 5 mps 747 mmHg 78%
15:00 +14°C° 0.5 mm 5 mps 747 mmHg 80%
16:00 +14°C° 0.5 mm 5 mps 747 mmHg 83%
17:00 +13°C° 0.4 mm 5 mps 747 mmHg 85%
18:00 +12°C° 0.4 mm 4 mps 748 mmHg 87%
19:00 +11°C° 0.4 mm 4 mps 748 mmHg 88%
20:00 +10°C° 0 mm 3 mps 748 mmHg 90%
21:00 +9°C° 0 mm 3 mps 749 mmHg 92%
22:00 +8°C° 0 mm 3 mps 749 mmHg 94%
23:00 +8°C° 0 mm 3 mps 749 mmHg 94%

19 May, Wednesday

Time Temperature Precipitation Wind Pressure Humidity
00:00 +8°C° 0 mm 3 mps 749 mmHg 94%
01:00 +7°C° 0 mm 3 mps 749 mmHg 95%
02:00 +7°C° 0 mm 3 mps 749 mmHg 95%
03:00 +7°C° 0 mm 3 mps 750 mmHg 95%
04:00 +5°C° 0 mm 3 mps 750 mmHg 96%
05:00 +8°C° 0 mm 3 mps 750 mmHg 93%
06:00 +8°C° 0 mm 4 mps 750 mmHg 89%
07:00 +11°C° 0 mm 4 mps 751 mmHg 86%
08:00 +12°C° 0.1 mm 4 mps 751 mmHg 79%
09:00 +13°C° 0.1 mm 4 mps 751 mmHg 72%
10:00 +15°C° 0.1 mm 4 mps 751 mmHg 64%
11:00 +14°C° 0.3 mm 4 mps 751 mmHg 68%
12:00 +14°C° 0.3 mm 4 mps 752 mmHg 71%
13:00 +13°C° 0.3 mm 5 mps 752 mmHg 75%
14:00 +14°C° 0.3 mm 4 mps 752 mmHg 72%
15:00 +14°C° 0.3 mm 4 mps 752 mmHg 69%
16:00 +15°C° 0.3 mm 4 mps 752 mmHg 67%
17:00 +13°C° 0.2 mm 4 mps 752 mmHg 72%
18:00 +12°C° 0.2 mm 3 mps 752 mmHg 77%
19:00 +11°C° 0.2 mm 3 mps 752 mmHg 82%
20:00 +10°C° 0 mm 2 mps 752 mmHg 84%
21:00 +9°C° 0 mm 2 mps 753 mmHg 86%
22:00 +8°C° 0 mm 2 mps 753 mmHg 88%
23:00 +7°C° 0 mm 2 mps 753 mmHg 89%

20 May, Thursday

Time Temperature Precipitation Wind Pressure Humidity
00:00 +7°C° 0 mm 2 mps 753 mmHg 90%
01:00 +6°C° 0 mm 2 mps 753 mmHg 91%
02:00 +6°C° 0 mm 2 mps 753 mmHg 92%
03:00 +6°C° 0 mm 2 mps 753 mmHg 92%
04:00 +5°C° 0 mm 2 mps 753 mmHg 93%
05:00 +7°C° 0 mm 3 mps 753 mmHg 89%
06:00 +9°C° 0 mm 3 mps 753 mmHg 85%
07:00 +10°C° 0 mm 3 mps 753 mmHg 81%
08:00 +11°C° 0.1 mm 4 mps 753 mmHg 74%
09:00 +13°C° 0.1 mm 4 mps 753 mmHg 68%
10:00 +14°C° 0.1 mm 5 mps 753 mmHg 61%
11:00 +14°C° 0 mm 5 mps 753 mmHg 57%
12:00 +15°C° 0 mm 6 mps 753 mmHg 53%
13:00 +15°C° 0 mm 6 mps 753 mmHg 49%
14:00 +15°C° 0 mm 6 mps 754 mmHg 53%
15:00 +14°C° 0 mm 5 mps 754 mmHg 57%
16:00 +14°C° 0 mm 5 mps 754 mmHg 61%
17:00 +13°C° 0.1 mm 4 mps 754 mmHg 67%
18:00 +12°C° 0.1 mm 4 mps 754 mmHg 72%
19:00 +10°C° 0.1 mm 3 mps 755 mmHg 77%
20:00 +9°C° 0 mm 3 mps 755 mmHg 81%
21:00 +8°C° 0 mm 3 mps 755 mmHg 86%
22:00 +7°C° 0 mm 3 mps 755 mmHg 90%
23:00 +7°C° 0 mm 3 mps 755 mmHg 90%

21 May, Friday

Time Temperature Precipitation Wind Pressure Humidity
00:00 +5°C° 0 mm 3 mps 755 mmHg 91%
01:00 +5°C° 0 mm 3 mps 755 mmHg 92%
02:00 +5°C° 0 mm 3 mps 755 mmHg 93%
03:00 +5°C° 0 mm 3 mps 755 mmHg 94%
04:00 +5°C° 0 mm 3 mps 754 mmHg 95%
05:00 +7°C° 0 mm 3 mps 754 mmHg 86%
06:00 +8°C° 0 mm 3 mps 754 mmHg 78%
07:00 +10°C° 0 mm 4 mps 754 mmHg 69%
08:00 +11°C° 0 mm 4 mps 754 mmHg 65%
09:00 +12°C° 0 mm 5 mps 754 mmHg 61%
10:00 +13°C° 0 mm 5 mps 753 mmHg 57%
11:00 +14°C° 0 mm 5 mps 753 mmHg 54%
12:00 +15°C° 0 mm 5 mps 752 mmHg 52%
13:00 +17°C° 0 mm 4 mps 752 mmHg 49%
14:00 +17°C° 0 mm 4 mps 751 mmHg 52%
15:00 +15°C° 0 mm 4 mps 751 mmHg 55%
16:00 +16°C° 0 mm 3 mps 750 mmHg 58%
17:00 +14°C° 0 mm 3 mps 750 mmHg 64%
18:00 +13°C° 0 mm 3 mps 750 mmHg 71%
19:00 +12°C° 0 mm 3 mps 749 mmHg 77%
20:00 +12°C° 0 mm 3 mps 749 mmHg 79%
21:00 +11°C° 0 mm 3 mps 748 mmHg 80%
22:00 +11°C° 0 mm 4 mps 748 mmHg 81%
23:00 +10°C° 0 mm 4 mps 748 mmHg 81%
Show more

We Need Your Consent

Meteoprog and our Service Providers may store and access personal data such as cookies, device identifiers or other similar technologies on your device and process such data to personalise content and ads, as well as provide social media features and to analyse the traffic.

  • Store and/or access information on your device

    Cookies, device identifiers or other information can be stored or accessed on your device for the purposes indicated above.

  • Personalised ads and content, ad and content measurement, audience insights, and products development

    Ads and content can be personalised based on a profile. More data can be added to better personalise ads and content. Ad and content performance can be measured. Insights about the audience who saw the ads and content can be derived. Such data can be used to develop or improve user’s experience, systems and software.

By clicking ‘I Agree’ you will allow the use of indicated cookies, device identifiers, web beacons or other similar technologies. Your settings can be changed in the browser on your device.

For certain purposes, legitimate interests may be relied on, rather than consent. You can read more about this in our Privacy and Cookie Policy.